TV
NORAD ID: 23613
Int'l Code: 1995-035B
Perigee: 35,655.4 km
Apogee: 35,934.3 km
Inclination: 13.6 °
Period: 1,436.2 minutes
Semi major axis: 42165 km
Launch date: July 13, 1995
Source: United States (US)
Comments: Tracking and communications with space shuttle, other missions.
Two Line Element Set (TLE):
1 23613U 95035B 13136.70079170 -.00000191 00000-0 00000+0 0 4640
2 23613 013.6375 031.9001 0033072 359.6247 180.1343 01.00267855 65316
Source: AFSPC
NASA's NSSDC Master Catalog entry for TDRS 7